Mount Pleasant, MI

5:40 AM EDT on June 25, 2017 (GMT -0400)
Mount Pleasant Municipal

Weather History for KMOP - November, 2013

Change the Weather History Date:

Friday, November 8, 2013

  Actual Average (KAMN) Record (KAMN)
Temperature  
Mean Temperature 37 °F -  
Max Temperature 44 °F 47 °F 64 °F (1975)
Min Temperature 30 °F 31 °F 11 °F (1991)
Degree Days  
Heating Degree Days 28    
Moisture  
Dew Point 26 °F    
Average Humidity 66    
Maximum Humidity 85    
Minimum Humidity 39    
Precipitation  
Precipitation 0.00 in - - ()
Sea Level Pressure  
Sea Level Pressure 30.17 in    
Wind  
Wind Speed 5 mph (WSW)    
Max Wind Speed 10 mph    
Max Gust Speed 16 mph    
Visibility 10 miles    
Events      
Averages and records for this station are not official NWS values.
T = Trace of Precipitation, MM = Missing Value Source: NWS Daily Summary

Daily Weather History Graph

Daily Weather History Graph

Search for Another Location

Airport or City:

Trip Planner

Search our weather history database for the weather conditions in past years. The results will help you decide how hot, cold, wet, or windy it might be!

Date:

Astronomy

Nov. 08, 2013 Rise Set
Actual Time 7:24 AM EST 5:20 PM EST
Civil Twilight 6:53 AM EST 5:51 PM EST
Nautical Twilight 6:19 AM EST 6:25 PM EST
Astronomical Twilight 5:45 AM EST 6:58 PM EST
Moon 12:19 PM EST (11/8) 10:41 PM EST (11/8)
Length of Visible Light 10h 57m
Length of Day
9h 56m
Waxing Crescent, 33% of the Moon is Illuminated
Nov 8
Waxing Crescent
Nov 10
First Quarter
Nov 17
Full
Nov 25
Last Quarter
Dec 2
New

Hourly Weather History & Observations

Time (EST) Temp. Windchill Dew Point Humidity Pressure Visibility Wind Dir Wind Speed Gust Speed Precip Events Conditions
12:16 AM 33.4 °F 29.1 °F 24.8 °F 71% 30.09 in 10.0 mi West 4.6 mph - N/A   Scattered Clouds
12:36 AM 32.7 °F 29.6 °F 25.0 °F 73% 30.10 in 10.0 mi WSW 3.5 mph - N/A   Mostly Cloudy
12:55 AM 33.4 °F 29.1 °F 25.3 °F 72% 30.11 in 10.0 mi WSW 4.6 mph - N/A   Overcast
1:16 AM 32.5 °F 28.1 °F 24.8 °F 73% 30.11 in 10.0 mi WSW 4.6 mph - N/A   Overcast
1:36 AM 32.0 °F 27.5 °F 24.8 °F 75% 30.10 in 10.0 mi WSW 4.6 mph - N/A   Scattered Clouds
1:55 AM 31.8 °F 26.2 °F 24.6 °F 75% 30.11 in 10.0 mi WSW 5.8 mph - N/A   Clear
2:16 AM 31.8 °F 26.2 °F 24.8 °F 75% 30.11 in 10.0 mi WSW 5.8 mph - N/A   Clear
2:35 AM 31.5 °F 26.8 °F 25.3 °F 78% 30.11 in 10.0 mi West 4.6 mph - N/A   Clear
2:56 AM 30.2 °F 25.4 °F 24.8 °F 80% 30.12 in 10.0 mi WSW 4.6 mph - N/A   Clear
3:16 AM 30.2 °F 25.4 °F 25.3 °F 82% 30.12 in 10.0 mi WSW 4.6 mph - N/A   Clear
3:35 AM 30.0 °F 26.5 °F 25.3 °F 83% 30.12 in 10.0 mi WSW 3.5 mph - N/A   Clear
3:56 AM 30.2 °F 25.4 °F 25.7 °F 83% 30.13 in 10.0 mi WSW 4.6 mph - N/A   Clear
4:16 AM 30.9 °F 25.2 °F 26.6 °F 84% 30.13 in 10.0 mi WSW 5.8 mph - N/A   Mostly Cloudy
4:35 AM 32.0 °F 26.4 °F 27.5 °F 83% 30.14 in 10.0 mi West 5.8 mph - N/A   Overcast
4:56 AM 31.6 °F 27.0 °F 27.1 °F 83% 30.14 in 10.0 mi West 4.6 mph - N/A   Scattered Clouds
5:16 AM 32.2 °F 26.7 °F 27.9 °F 84% 30.15 in 10.0 mi WSW 5.8 mph - N/A   Mostly Cloudy
5:35 AM 32.9 °F 29.8 °F 27.9 °F 82% 30.15 in 10.0 mi West 3.5 mph - N/A   Overcast
5:56 AM 33.4 °F 29.1 °F 28.2 °F 81% 30.16 in 10.0 mi WSW 4.6 mph - N/A   Overcast
6:16 AM 33.8 °F 29.6 °F 28.0 °F 79% 30.17 in 10.0 mi West 4.6 mph - N/A   Overcast
6:35 AM 34.3 °F 28.4 °F 27.9 °F 77% 30.17 in 10.0 mi WSW 6.9 mph - N/A   Overcast
6:56 AM 34.7 °F 29.6 °F 28.0 °F 77% 30.18 in 10.0 mi West 5.8 mph - N/A   Overcast
7:16 AM 34.7 °F 29.6 °F 28.0 °F 77% 30.19 in 10.0 mi West 5.8 mph - N/A   Overcast
7:35 AM 33.4 °F 27.3 °F 27.7 °F 79% 30.19 in 10.0 mi WSW 6.9 mph - N/A   Scattered Clouds
7:56 AM 33.8 °F 29.6 °F 27.9 °F 79% 30.20 in 10.0 mi West 4.6 mph - N/A   Clear
8:16 AM 34.7 °F 30.6 °F 28.4 °F 78% 30.21 in 10.0 mi WSW 4.6 mph - N/A   Clear
8:35 AM 36.0 °F 31.1 °F 28.6 °F 75% 30.22 in 10.0 mi WSW 5.8 mph - N/A   Clear
8:56 AM 37.2 °F 31.9 °F 28.9 °F 72% 30.23 in 10.0 mi WSW 6.9 mph - N/A   Clear
9:16 AM 38.3 °F 32.5 °F 28.8 °F 69% 30.23 in 10.0 mi WSW 8.1 mph - N/A   Clear
9:35 AM 39.4 °F 33.8 °F 28.8 °F 66% 30.23 in 10.0 mi West 8.1 mph - N/A   Clear
9:56 AM 41.2 °F 36.0 °F 28.8 °F 61% 30.23 in 10.0 mi West 8.1 mph 16.1 mph N/A   Mostly Cloudy
10:16 AM 40.6 °F 36.0 °F 27.9 °F 60% 30.23 in 10.0 mi West 6.9 mph - N/A   Overcast
10:35 AM 40.3 °F 36.3 °F 27.9 °F 61% 30.23 in 10.0 mi West 5.8 mph - N/A   Overcast
10:56 AM 42.3 °F 37.3 °F 27.9 °F 57% 30.24 in 10.0 mi WNW 8.1 mph - N/A   Scattered Clouds
11:16 AM 41.0 °F 37.1 °F 27.0 °F 57% 30.24 in 10.0 mi West 5.8 mph - N/A   Mostly Cloudy
11:35 AM 40.8 °F 36.2 °F 26.2 °F 56% 30.24 in 10.0 mi West 6.9 mph - N/A   Overcast
11:56 AM 41.0 °F 34.7 °F 26.1 °F 55% 30.24 in 10.0 mi West 10.4 mph - N/A   Overcast
12:16 PM 41.0 °F 35.8 °F 25.5 °F 54% 30.23 in 10.0 mi WSW 8.1 mph - N/A   Overcast
12:35 PM 41.5 °F 38.6 °F 24.4 °F 51% 30.22 in 10.0 mi WNW 4.6 mph - N/A   Overcast
12:56 PM 41.4 °F 35.2 °F 24.4 °F 51% 30.21 in 10.0 mi West 10.4 mph - N/A   Overcast
1:16 PM 41.5 °F 38.6 °F 23.9 °F 50% 30.21 in 10.0 mi WSW 4.6 mph - N/A   Mostly Cloudy
1:35 PM 42.4 °F 36.5 °F 23.2 °F 47% 30.20 in 10.0 mi SW 10.4 mph - N/A   Overcast
1:56 PM 42.4 °F 38.8 °F 22.6 °F 46% 30.19 in 10.0 mi WSW 5.8 mph - N/A   Mostly Cloudy
2:15 PM 44.6 °F 39.2 °F 21.6 °F 40% 30.19 in 10.0 mi WSW 10.4 mph - N/A   Scattered Clouds
2:36 PM 44.4 °F 39.5 °F 21.9 °F 41% 30.18 in 10.0 mi SW 9.2 mph - N/A   Clear
2:56 PM 43.3 °F 37.7 °F 21.6 °F 42% 30.18 in 10.0 mi WSW 10.4 mph - N/A   Scattered Clouds
3:15 PM 43.7 °F 39.1 °F 22.1 °F 42% 30.18 in 10.0 mi WSW 8.1 mph - N/A   Mostly Cloudy
3:36 PM 43.3 °F 39.2 °F 20.8 °F 41% 30.18 in 10.0 mi WSW 6.9 mph 10.4 mph N/A   Scattered Clouds
3:56 PM 43.9 °F 39.3 °F 20.3 °F 39% 30.18 in 10.0 mi West 8.1 mph - N/A   Clear
4:15 PM 43.3 °F 38.1 °F 21.0 °F 41% 30.18 in 10.0 mi SW 9.2 mph - N/A   Clear
4:36 PM 42.4 °F 38.1 °F 21.2 °F 43% 30.17 in 10.0 mi SW 6.9 mph - N/A   Clear
4:56 PM 42.3 °F 37.9 °F 22.6 °F 46% 30.17 in 10.0 mi SW 6.9 mph - N/A   Clear
5:15 PM 41.0 °F 38.0 °F 22.6 °F 48% 30.17 in 10.0 mi SSW 4.6 mph - N/A   Clear
5:36 PM 40.1 °F 36.9 °F 23.0 °F 51% 30.17 in 10.0 mi SW 4.6 mph - N/A   Clear
5:56 PM 39.4 °F 36.1 °F 23.0 °F 52% 30.17 in 10.0 mi SSW 4.6 mph - N/A   Clear
6:16 PM 39.2 °F 37.0 °F 23.5 °F 53% 30.18 in 10.0 mi SSW 3.5 mph - N/A   Clear
6:36 PM 37.6 °F - 23.9 °F 58% 30.18 in 10.0 mi Calm Calm - N/A   Clear
6:55 PM 37.6 °F - 23.9 °F 58% 30.17 in 10.0 mi Calm Calm - N/A   Clear
7:16 PM 36.1 °F 33.5 °F 24.4 °F 63% 30.17 in 10.0 mi SSW 3.5 mph - N/A   Clear
7:36 PM 36.1 °F - 24.4 °F 63% 30.16 in 10.0 mi Calm Calm - N/A   Clear
7:55 PM 34.3 °F - 24.8 °F 68% 30.16 in 10.0 mi Calm Calm - N/A   Clear
8:16 PM 32.5 °F - 24.8 °F 73% 30.15 in 10.0 mi Calm Calm - N/A   Clear
8:36 PM 32.0 °F - 25.5 °F 77% 30.15 in 10.0 mi Calm Calm - N/A   Mostly Cloudy
8:55 PM 31.6 °F - 26.2 °F 80% 30.15 in 10.0 mi Calm Calm - N/A   Overcast
9:16 PM 32.2 °F - 28.2 °F 85% 30.15 in 10.0 mi Calm Calm - N/A   Overcast
9:36 PM 35.2 °F 32.4 °F 27.0 °F 72% 30.15 in 10.0 mi SE 3.5 mph - N/A   Scattered Clouds
9:55 PM 35.6 °F - 26.4 °F 69% 30.15 in 10.0 mi Calm Calm - N/A   Mostly Cloudy
10:16 PM 36.0 °F 32.1 °F 27.0 °F 70% 30.14 in 10.0 mi SE 4.6 mph - N/A   Overcast
10:36 PM 36.1 °F - 27.3 °F 70% 30.13 in 10.0 mi Calm Calm - N/A   Overcast
10:55 PM 36.5 °F - 27.9 °F 71% 30.13 in 10.0 mi Calm Calm - N/A   Overcast
11:16 PM 36.3 °F - 28.4 °F 73% 30.12 in 10.0 mi Calm Calm - N/A   Mostly Cloudy
11:36 PM 36.1 °F 33.5 °F 28.4 °F 73% 30.11 in 10.0 mi SE 3.5 mph - N/A   Overcast
11:55 PM 36.3 °F 32.5 °F 29.1 °F 75% 30.09 in 10.0 mi ESE 4.6 mph - N/A   Overcast